Berea, OH (44017)

4:38 AM EDT on August 25, 2016 (GMT -0400)
Southeast Berea | | Change Station

Elev 804 ft 41.36 °N, 81.84 °W | Updated 12 minutes ago

Overcast
Overcast
72.9 °F
Feels Like 72.9 °F
N
1.7
Wind Variable Wind from West

Today
High -- | Low -- °F
--% Chance of Precip.
Yesterday
High -- | Low -- °F
Precip. -- in
Pressure 30.01 in
Visibility 10.0 miles
Clouds Mostly Cloudy 900 ft
Overcast 1800 ft
Dew Point 70 °F
Humidity 92%
Rainfall 0.20 in
Snow Depth Not available.
6:47 AM 8:10 PM
Waning Gibbous, 48% visible
SPECI KCLE 250827Z 24007KT 10SM BKN009 OVC018 24/22 A3001 RMK AO2 T02390217
Pressure 30.01 in
Visibility 10.0 miles
Clouds Mostly Cloudy 900 ft
Overcast 1800 ft
Dew Point 70 °F
Humidity 92%
Rainfall 0.20 in
Snow Depth Not available.
6:47 AM 8:10 PM
Waning Gibbous, 48% visible
SPECI KCLE 250827Z 24007KT 10SM BKN009 OVC018 24/22 A3001 RMK AO2 T02390217

10-Day Weather Forecast

Almanac

Astronomy

Aug. 25, 2016 Rise Set
Actual Time
Civil Twilight
Nautical Twilight
Astronomical Twilight
Moon
Length of Visible Light
Length of Day
Tomorrow will be .
, % of the Moon is Illuminated

Today's Extremes

State Highs State Lows

Community

WunderPhotos

Upload Photos

1,934,814 photos uploaded!

WunderBlog® & News

Nearby

Air Quality

  Air Quality AQ Index Pollutant
Not available.

Snow Depth

Station Depth Elevation

Earthquake Activity

City Distance Mag. Time & Date
Minimum magnitude displayed is 2.5.

Coastal Water Temperatures

Place Temperature

Stations

Nearby Weather Stations

Station Location Temp. Windchill Dew Point Humidity Wind Precip. Elev Updated Type
                   

Watches & Warnings

There are currently no watches in effect.